Weather History for Jacksonville, FL

Change the Weather History Date:

Sunday, May 19, 2013

  Actual Average Record
Temperature  
Mean Temperature 77 °F 75 °F  
Max Temperature 85 °F 86 °F 97 °F (1960)
Min Temperature 68 °F 64 °F 51 °F (1977)
Degree Days  
Heating Degree Days 0 0  
Month to date heating degree days 5 3  
Since 1 July heating degree days 1243 1347  
Cooling Degree Days 12 10  
Month to date cooling degree days 106 151  
Year to date cooling degree days 325 347  
Growing Degree Days 26 (Base 50)    
Moisture  
Dew Point 69 °F    
Average Humidity 83    
Maximum Humidity 100    
Minimum Humidity 65    
Precipitation  
Precipitation 0.18 in 0.07 in 2.14 in (2003)
Month to date precipitation 4.31 1.27  
Year to date precipitation 16.16 14.35  
Snow  
Snow 0.00 in 0.00 in 0.00 in (2002)
Month to date snowfall 0.0 0.0  
Since 1 July snowfall 0.0 T  
Snow Depth 0.00 in    
Sea Level Pressure  
Sea Level Pressure 30.07 in    
Wind  
Wind Speed 6 mph (SE)    
Max Wind Speed 16 mph    
Max Gust Speed 24 mph    
Visibility 10 miles    
Events Rain , Thunderstorm    
T = Trace of Precipitation, MM = Missing Value Source: NWS Daily Summary

Daily Weather History Graph

Daily Weather History Graph

Search for Another Location

Airport:

Trip Planner

Search our weather history database for the weather conditions in past years. The results will help you decide how hot, cold, wet, or windy it might be!

Date:

Astronomy

May. 19, 2013 Rise Set
Actual Time 6:29 AM EDT 8:16 PM EDT
Civil Twilight 6:03 AM EDT 8:43 PM EDT
Nautical Twilight 5:31 AM EDT 9:15 PM EDT
Astronomical Twilight 4:57 AM EDT 9:49 PM EDT
Moon 2:42 PM EDT (5/19) 2:27 AM EDT (5/19)
Length of Visible Light 14h 40m
Length of Day
13h 46m
Waxing Gibbous, 65% of the Moon is Illuminated
May 19
Waxing Gibbous
May 25
Full
May 31
Last Quarter
Jun 8
New
Jun 16
First Quarter

Hourly Weather History & Observations

Time (EDT) Temp. Heat Index Dew Point Humidity Pressure Visibility Wind Dir Wind Speed Gust Speed Precip Events Conditions
12:20 AM 73.4 °F - 71.6 °F 94% 30.09 in 8.0 mi South 4.6 mph - N/A   Mostly Cloudy
12:24 AM 73.4 °F - 71.6 °F 94% 30.09 in 8.0 mi South 5.8 mph - N/A   Mostly Cloudy
12:34 AM 71.6 °F - 69.8 °F 94% 30.09 in 10.0 mi South 6.9 mph - N/A   Scattered Clouds
12:56 AM 71.1 °F - 69.1 °F 93% 30.09 in 10.0 mi South 5.8 mph - N/A   Scattered Clouds
1:56 AM 71.1 °F - 69.1 °F 93% 30.08 in 10.0 mi Calm Calm - N/A   Partly Cloudy
2:56 AM 71.1 °F - 69.1 °F 93% 30.07 in 10.0 mi SE 5.8 mph - N/A   Scattered Clouds
3:56 AM 70.0 °F - 69.1 °F 97% 30.06 in 10.0 mi SE 6.9 mph - N/A   Partly Cloudy
4:56 AM 69.1 °F - 68.0 °F 96% 30.07 in 10.0 mi SSE 3.5 mph - N/A   Partly Cloudy
5:56 AM 68.0 °F - 66.9 °F 96% 30.07 in 9.0 mi Calm Calm - N/A   Scattered Clouds
6:56 AM 69.1 °F - 68.0 °F 96% 30.08 in 10.0 mi SSE 3.5 mph - N/A   Scattered Clouds
7:56 AM 72.0 °F - 69.1 °F 91% 30.09 in 10.0 mi SE 5.8 mph - N/A   Partly Cloudy
8:56 AM 75.9 °F - 70.0 °F 82% 30.11 in 10.0 mi South 6.9 mph - N/A   Scattered Clouds
9:56 AM 79.0 °F - 71.1 °F 77% 30.11 in 10.0 mi SSE 6.9 mph - N/A   Scattered Clouds
10:56 AM 81.0 °F 84.9 °F 71.1 °F 72% 30.11 in 10.0 mi South 8.1 mph - N/A   Mostly Cloudy
11:56 AM 82.9 °F 87.0 °F 70.0 °F 65% 30.10 in 10.0 mi SSE 4.6 mph - N/A   Mostly Cloudy
12:56 PM 84.0 °F 89.0 °F 71.1 °F 65% 30.09 in 10.0 mi SW 5.8 mph - 0.00 in Rain Light Rain
1:56 PM 82.0 °F 85.9 °F 70.0 °F 67% 30.06 in 10.0 mi East 10.4 mph - 0.00 in   Mostly Cloudy
2:56 PM 82.9 °F 87.5 °F 71.1 °F 67% 30.04 in 10.0 mi East 10.4 mph - 0.00 in   Mostly Cloudy
3:56 PM 82.0 °F 85.9 °F 70.0 °F 67% 30.05 in 10.0 mi SE 9.2 mph - N/A Thunderstorm Thunderstorm
4:08 PM 80.6 °F 83.9 °F 69.8 °F 70% 30.04 in 10.0 mi SE 10.4 mph - N/A Thunderstorm Thunderstorm
4:56 PM 79.0 °F - 70.0 °F 74% 30.04 in 10.0 mi ENE 5.8 mph - N/A Thunderstorm Thunderstorm
5:34 PM 78.8 °F - 69.8 °F 74% 30.03 in 10.0 mi ESE 10.4 mph - 0.00 in   Mostly Cloudy
5:56 PM 78.1 °F - 69.1 °F 74% 30.04 in 10.0 mi ESE 12.7 mph 24.2 mph 0.00 in Rain Light Rain
6:56 PM 78.1 °F - 69.1 °F 74% 30.03 in 10.0 mi SE 9.2 mph - 0.00 in   Mostly Cloudy
7:56 PM 77.0 °F - 69.1 °F 76% 30.04 in 10.0 mi SE 9.2 mph - N/A   Mostly Cloudy
8:56 PM 75.9 °F - 66.9 °F 74% 30.06 in 10.0 mi ESE 8.1 mph - N/A   Mostly Cloudy
9:29 PM 75.2 °F - 66.2 °F 73% 30.06 in 10.0 mi SSE 5.8 mph - N/A Thunderstorm Thunderstorm
9:56 PM 75.0 °F - 68.0 °F 79% 30.12 in 10.0 mi NNW 10.4 mph - N/A Thunderstorm Thunderstorm
10:28 PM 73.4 °F - 69.8 °F 88% 30.11 in 10.0 mi NNW 4.6 mph - N/A   Overcast
10:38 PM 73.4 °F - 69.8 °F 88% 30.11 in 10.0 mi Calm Calm - N/A Thunderstorm Thunderstorm
10:56 PM 72.0 °F - 69.1 °F 91% 30.11 in 10.0 mi Calm Calm - 0.00 in Rain , Thunderstorm Light Thunderstorms and Rain
11:56 PM 70.0 °F - 68.0 °F 93% 30.09 in 10.0 mi SSE 6.9 mph - 0.06 in Rain , Thunderstorm Light Thunderstorms and Rain